[[{"header":{"parameterUnit":"m.s-1","parameterCategory":1,"la1":30.2991,"la2":30.254,"lo1":-89.0895,"lo2":-89.0444,"dy":0.0017,"dx":0.0017,"nx":28,"ny":28,"refTime":"2024-07-21T21:00:00:Z","depth":0,"parameterNumber":2,"parameterNumberName":"U-component_of_WINDS"},"data":[0,0,0,0,0,0,0,0,0,0,0,0,0,0,0,0,0,0,0,0,0,0,0,0,0,0,0,0,0,0,0,0,0,0,0,0,0,0,0,0,0,0,0,0,0,0,0,0,0,0,0,0,0,0,0,0,0,0,-0.1399,-0.1399,0,-0.1415,-0.1415,-0.1415,-0.1453,-0.1454,-0.1455,-0.1456,-0.1471,-0.1471,-0.147,0,0,0,0,0,0,0,0,0,0,0,0,0,-0.1402,-0.1401,-0.1399,-0.1399,-0.1399,-0.1415,-0.1415,-0.1416,-0.1453,-0.1454,-0.1455,-0.1456,-0.1471,-0.1471,-0.147,0,0,0,0,0,0,0,0,0,0,0,0,0,-0.1407,-0.1401,-0.1399,-0.142,-0.1422,-0.1415,-0.1415,-0.1416,-0.1453,-0.1454,-0.1455,-0.1456,-0.1471,-0.1471,-0.147,-0.1444,0,0,-0.1469,-0.1469,0,0,0,0,0,0,0,0,-0.1407,-0.1407,-0.1417,-0.1419,-0.1421,-0.1433,-0.1422,-0.1425,-0.1453,-0.1441,-0.1456,-0.1457,-0.1457,-0.1458,-0.1459,-0.1444,-0.1445,-0.1469,-0.1468,-0.1468,-0.1468,0,0,0,0,0,0,0,-0.1407,-0.1407,-0.1405,-0.1417,-0.1419,-0.1429,-0.1431,-0.1423,-0.1442,-0.1442,-0.1445,-0.1447,-0.1459,-0.1459,-0.1459,-0.1445,-0.1469,-0.1468,-0.1468,-0.1468,-0.1413,-0.1412,0,0,0,0,0,0,-0.1403,-0.1406,-0.1405,-0.1406,-0.1417,-0.1428,-0.143,-0.1428,-0.1443,-0.1446,-0.1446,-0.1448,-0.1459,-0.146,-0.146,-0.1431,-0.1468,-0.1468,-0.1468,-0.1414,-0.1413,-0.1412,0,0,0,0,0,0,-0.1403,-0.1403,-0.1404,-0.1407,-0.1408,-0.1427,-0.1424,-0.1428,-0.1428,-0.1445,-0.1449,-0.1442,-0.146,-0.1461,-0.1448,-0.1432,-0.1468,-0.1467,-0.1416,-0.1414,-0.1412,-0.1373,0,0,0,0,0,0,-0.1403,-0.1402,-0.1392,-0.1406,-0.1407,-0.1391,-0.1423,-0.1427,-0.1427,-0.1431,-0.1443,-0.1446,-0.1461,-0.1449,-0.1448,-0.1432,-0.1467,-0.1417,-0.1415,-0.1413,-0.1375,-0.137,-0.1365,0,0,0,0,0,-0.1403,-0.1379,-0.1391,-0.1391,-0.1395,-0.139,-0.1391,-0.1409,-0.1426,-0.1416,-0.1427,-0.1445,-0.1434,-0.1447,-0.1446,-0.143,-0.1418,-0.1415,-0.1413,-0.1378,-0.1371,-0.1365,0,0,0,0,0,0,-0.1361,-0.1381,-0.1395,-0.1375,-0.1381,-0.1397,-0.1384,-0.1401,-0.1402,-0.1405,-0.1428,-0.1431,-0.1415,-0.1422,-0.1436,-0.1407,-0.1429,-0.1426,-0.1403,-0.1397,-0.1391,-0.139,-0.1466,0,0,0,0,0,-0.135,-0.1345,-0.1363,-0.1344,-0.1346,-0.1365,-0.1364,-0.1378,-0.1384,-0.1387,-0.1397,-0.1403,-0.1402,-0.1399,-0.1398,-0.1377,-0.1381,-0.1366,-0.1361,-0.1357,-0.1354,-0.1345,-0.1339,-0.1403,-0.1403,-0.1403,0,0,-0.1326,-0.1336,-0.1331,-0.1336,-0.1342,-0.1336,-0.1366,-0.1359,-0.1355,-0.1386,-0.1375,-0.1383,-0.1391,-0.1375,-0.1368,-0.138,-0.1337,-0.1353,-0.135,-0.1349,-0.1342,-0.1336,-0.133,-0.1401,-0.1401,-0.1402,0,0,-0.128,-0.1287,-0.1273,-0.1279,-0.1289,-0.1302,-0.1299,-0.1313,-0.132,-0.131,-0.1333,-0.133,-0.1325,-0.1331,-0.1333,-0.1293,-0.131,-0.1292,-0.1264,-0.1256,-0.1251,-0.1246,-0.1233,-0.1228,-0.1289,-0.1289,-0.1289,0,-0.1248,-0.1241,-0.1263,-0.1255,-0.1257,-0.1286,-0.1272,-0.1277,-0.1286,-0.1286,-0.13,-0.1297,-0.1304,-0.1291,-0.1281,-0.1282,-0.128,-0.129,-0.125,-0.1246,-0.1242,-0.123,-0.1224,-0.1287,-0.1287,-0.1287,-0.1288,0,-0.1204,-0.1199,-0.1186,-0.1195,-0.1196,-0.1185,-0.1206,-0.1204,-0.1219,-0.1231,-0.1222,-0.1232,-0.1235,-0.1233,-0.1246,-0.1222,-0.1229,-0.1246,-0.1269,-0.1233,-0.1222,-0.1218,-0.1284,-0.1285,-0.1285,-0.1286,0,0,-0.1129,-0.1153,-0.1148,-0.1153,-0.1168,-0.1164,-0.1156,-0.116,-0.1158,-0.1164,-0.1158,-0.1156,-0.1172,-0.1175,-0.119,-0.1182,-0.1152,-0.12,-0.1201,-0.1192,-0.1127,-0.1115,-0.1109,-0.1164,-0.1163,-0.1162,-0.1127,0,-0.1087,-0.1073,-0.1094,-0.1076,-0.1073,-0.1102,-0.1095,-0.1103,-0.1115,-0.1115,-0.1128,-0.1126,-0.1147,-0.1149,-0.1143,-0.1157,-0.1139,-0.116,-0.1159,-0.1159,-0.1156,-0.1103,-0.1089,-0.1055,-0.1123,-0.1122,-0.1121,0,-0.1034,-0.1039,-0.1022,-0.104,-0.1039,-0.1032,-0.1039,-0.1038,-0.1049,-0.1058,-0.1063,-0.1082,-0.1076,-0.1099,-0.1091,-0.1105,-0.1106,-0.1113,-0.1112,-0.1113,-0.1138,-0.1102,-0.1044,-0.1039,-0.1115,-0.1115,-0.1116,0,-0.0983,-0.0986,-0.0976,-0.098,-0.1,-0.0995,-0.1003,-0.1016,-0.1018,-0.1024,-0.1025,-0.103,-0.1033,-0.1037,-0.1057,-0.1071,-0.1048,-0.1072,-0.1056,-0.1056,-0.1049,-0.1049,-0.0991,-0.105,-0.105,-0.105,-0.105,0,-0.0934,-0.0922,-0.0954,-0.0947,-0.0936,-0.0961,-0.0949,-0.096,-0.0971,-0.0969,-0.0994,-0.0991,-0.1018,-0.1018,-0.1034,-0.1027,-0.1027,-0.1035,-0.104,-0.1033,-0.1032,-0.1034,-0.1037,-0.1048,-0.1049,-0.1049,-0.1049,0,-0.0874,-0.0895,-0.0886,-0.0907,-0.0913,-0.0903,-0.0922,-0.0918,-0.0932,-0.0929,-0.0929,-0.0952,-0.0954,-0.0975,-0.0981,-0.0992,-0.0979,-0.0988,-0.0975,-0.0978,-0.0962,-0.0963,-0.0903,-0.0896,-0.0959,-0.0958,-0.0957,0,-0.0841,-0.0833,-0.0854,-0.0855,-0.0862,-0.0862,-0.0865,-0.089,-0.0892,-0.0906,-0.09,-0.0905,-0.0909,-0.0911,-0.0929,-0.0934,-0.0944,-0.0922,-0.0945,-0.0939,-0.0945,-0.0945,-0.0945,-0.0917,-0.0916,-0.0916,-0.0915,0,-0.078,-0.0792,-0.0795,-0.0802,-0.0805,-0.0812,-0.0821,-0.082,-0.0847,-0.0848,-0.0852,-0.0855,-0.0863,-0.0868,-0.0877,-0.0886,-0.0905,-0.0908,-0.0905,-0.0898,-0.0892,-0.0896,-0.0963,-0.0909,-0.091,-0.091,-0.0911,-0.0911,-0.0733,-0.0729,-0.0744,-0.0747,-0.0757,-0.0765,-0.0762,-0.0778,-0.0781,-0.079,-0.0805,-0.0806,-0.082,-0.0834,-0.0842,-0.0844,-0.0856,-0.0851,-0.0849,-0.0848,-0.0845,-0.0892,-0.0846,-0.0846,-0.0846,-0.0847,-0.0847,0,-0.0675,-0.0687,-0.069,-0.0702,-0.0705,-0.0725,-0.0736,-0.0737,-0.0738,-0.075,-0.0755,-0.076,-0.0765,-0.0784,-0.0791,-0.0789,-0.0799,-0.0791,-0.0791,-0.0793,-0.0834,-0.0836,-0.0783,-0.0783,-0.0783,-0.0783,-0.0783,-0.0783,-0.0645,-0.0639,-0.0652,-0.0652,-0.0664,-0.0666,-0.0671,-0.0679,-0.0689,-0.0693,-0.0698,-0.0711,-0.0726,-0.0735,-0.0741,-0.0747,-0.0749,-0.0738,-0.0746,-0.0784,-0.079,-0.0796,-0.0798,-0.0738,-0.0738,-0.0706,-0.0706,-0.0705]},{"header":{"parameterUnit":"m.s-1","parameterCategory":1,"la1":30.2991,"la2":30.254,"lo1":-89.0895,"lo2":-89.0444,"dy":0.0017,"dx":0.0017,"nx":28,"ny":28,"refTime":"2024-07-21T21:00:00:Z","depth":0,"parameterNumber":3,"parameterNumberName":"V-component_of_WINDS"},"data":[0,0,0,0,0,0,0,0,0,0,0,0,0,0,0,0,0,0,0,0,0,0,0,0,0,0,0,0,0,0,0,0,0,0,0,0,0,0,0,0,0,0,0,0,0,0,0,0,0,0,0,0,0,0,0,0,0,0,4.3279,4.3279,0,4.3321,4.3321,4.3322,4.3288,4.3287,4.3285,4.3284,4.3325,4.3328,4.333,0,0,0,0,0,0,0,0,0,0,0,0,0,4.3165,4.3167,4.3279,4.3279,4.328,4.3321,4.3321,4.3322,4.3288,4.3287,4.3285,4.3283,4.3324,4.3327,4.333,0,0,0,0,0,0,0,0,0,0,0,0,0,4.3211,4.3168,4.3278,4.3268,4.3267,4.332,4.3321,4.3322,4.3289,4.3287,4.3285,4.3283,4.3323,4.3327,4.3331,4.3395,0,0,4.3342,4.3343,0,0,0,0,0,0,0,0,4.3209,4.3215,4.3269,4.3269,4.3268,4.3297,4.3296,4.3346,4.3289,4.3281,4.3284,4.3281,4.3317,4.3321,4.3334,4.3397,4.3399,4.3342,4.3344,4.3346,4.3347,0,0,0,0,0,0,0,4.3206,4.3213,4.3295,4.327,4.3269,4.326,4.3264,4.3305,4.331,4.3281,4.3279,4.3284,4.3317,4.333,4.3335,4.34,4.3342,4.3345,4.3347,4.3349,4.3515,4.3517,0,0,0,0,0,0,4.3204,4.3211,4.3294,4.3296,4.3233,4.3263,4.3268,4.329,4.331,4.3311,4.3286,4.3283,4.3325,4.333,4.3336,4.3411,4.3346,4.3349,4.3351,4.3512,4.3515,4.3517,0,0,0,0,0,0,4.3201,4.3212,4.3292,4.3253,4.3263,4.3268,4.3292,4.3292,4.3306,4.3314,4.3314,4.33,4.3324,4.3331,4.338,4.3412,4.3351,4.3354,4.351,4.3513,4.3516,4.3563,0,0,0,0,0,0,4.3198,4.3211,4.3237,4.3254,4.3265,4.3337,4.3294,4.3294,4.3312,4.3308,4.3326,4.3327,4.3323,4.3375,4.3384,4.3416,4.3357,4.3507,4.3511,4.3515,4.3559,4.3567,4.3575,0,0,0,0,0,4.3194,4.3249,4.3239,4.3249,4.3298,4.3339,4.3345,4.334,4.3315,4.334,4.3345,4.3327,4.3407,4.338,4.339,4.3424,4.3505,4.351,4.3515,4.3555,4.3566,4.3575,0,0,0,0,0,0,4.3236,4.3251,4.324,4.3302,4.3319,4.3334,4.3366,4.3352,4.3376,4.3372,4.3362,4.3367,4.3418,4.3426,4.3396,4.3485,4.3452,4.3459,4.3479,4.3489,4.3497,4.3494,4.336,0,0,0,0,0,4.3253,4.3286,4.3297,4.335,4.336,4.3361,4.3379,4.3373,4.339,4.3398,4.3406,4.3423,4.3451,4.3471,4.3498,4.3559,4.3561,4.3587,4.3595,4.3602,4.3608,4.3638,4.3649,4.3534,4.3534,4.3534,0,0,4.3287,4.3299,4.3321,4.3359,4.3372,4.3405,4.3368,4.3405,4.3429,4.3403,4.345,4.3456,4.3474,4.3529,4.3554,4.3537,4.364,4.3608,4.3613,4.3616,4.3644,4.3655,4.3665,4.3537,4.3537,4.3536,0,0,4.3366,4.338,4.3424,4.3437,4.3457,4.3457,4.3467,4.3483,4.3486,4.3533,4.3513,4.354,4.3591,4.3604,4.3617,4.3697,4.368,4.3705,4.3749,4.3778,4.3787,4.3795,4.3821,4.3831,4.3712,4.3712,4.3712,0,4.3407,4.3457,4.3449,4.3487,4.3503,4.348,4.3523,4.3536,4.3564,4.3574,4.3555,4.3616,4.3627,4.3683,4.3702,4.3714,4.3724,4.3704,4.3786,4.3794,4.3801,4.3826,4.3837,4.3715,4.3714,4.3714,4.3714,0,4.3504,4.3538,4.3572,4.3598,4.3617,4.3658,4.3654,4.3675,4.3666,4.3667,4.3713,4.3725,4.3752,4.3765,4.3757,4.3819,4.3808,4.3788,4.3754,4.3815,4.3839,4.3848,4.3719,4.3718,4.3717,4.3716,0,0,4.3614,4.3632,4.3644,4.3654,4.3672,4.3698,4.3736,4.3763,4.3779,4.3798,4.3828,4.387,4.385,4.3865,4.3858,4.3884,4.3943,4.386,4.386,4.3873,4.4009,4.4023,4.4035,4.3932,4.3934,4.3935,4.4007,0,4.3692,4.3759,4.3751,4.3814,4.3844,4.3821,4.3853,4.3867,4.3868,4.3892,4.3893,4.3922,4.3896,4.3904,4.3928,4.3931,4.397,4.3925,4.3958,4.396,4.3954,4.4047,4.4063,4.413,4.4016,4.4018,4.4019,0,4.3794,4.3815,4.388,4.389,4.3902,4.3932,4.3954,4.3978,4.3992,4.3991,4.4005,4.3993,4.4029,4.3993,4.4041,4.4011,4.4024,4.4027,4.4029,4.4032,4.3993,4.4051,4.4152,4.4161,4.4033,4.4032,4.4031,0,4.3865,4.3909,4.3953,4.3963,4.3976,4.3997,4.4003,4.4014,4.403,4.4048,4.4058,4.4081,4.4093,4.411,4.4103,4.4079,4.4151,4.4117,4.415,4.415,4.4167,4.4166,4.427,4.4176,4.4176,4.4176,4.4176,0,4.3953,4.3994,4.3985,4.4012,4.4056,4.4045,4.4088,4.4091,4.4101,4.4127,4.4108,4.4133,4.4122,4.4146,4.414,4.4179,4.4186,4.4184,4.4182,4.4186,4.4186,4.4194,4.4188,4.4179,4.4178,4.4178,4.4177,0,4.404,4.4036,4.4082,4.409,4.4092,4.4124,4.413,4.4154,4.4152,4.4185,4.4192,4.419,4.4216,4.421,4.424,4.4236,4.4284,4.4277,4.428,4.4278,4.4311,4.4307,4.4423,4.4437,4.4336,4.4337,4.4338,0,4.4097,4.4127,4.4137,4.4153,4.416,4.4186,4.4201,4.419,4.4206,4.4221,4.4243,4.4268,4.4287,4.4329,4.4329,4.4351,4.4343,4.4382,4.4346,4.4347,4.4342,4.4339,4.4341,4.4389,4.439,4.4391,4.4392,0,4.4197,4.4192,4.4215,4.4235,4.4253,4.4268,4.4282,4.4296,4.4286,4.4304,4.433,4.4345,4.4373,4.4397,4.4416,4.4421,4.4404,4.4403,4.4412,4.4415,4.4415,4.4413,4.4298,4.4401,4.44,4.4399,4.4399,4.4398,4.427,4.4294,4.4304,4.4328,4.4336,4.4349,4.4371,4.4371,4.4393,4.4414,4.4406,4.4435,4.4445,4.4468,4.4475,4.4497,4.4482,4.4495,4.4498,4.4502,4.4505,4.4412,4.4501,4.4501,4.45,4.45,4.45,0,4.4368,4.4371,4.4394,4.4412,4.443,4.4412,4.4425,4.4442,4.4467,4.4477,4.4495,4.4523,4.4545,4.4546,4.4566,4.4583,4.4576,4.4589,4.4587,4.4588,4.4518,4.4508,4.4594,4.4594,4.4594,4.4594,4.4594,4.4594,4.4421,4.446,4.4455,4.4498,4.4501,4.4529,4.4538,4.4548,4.4555,4.4587,4.4605,4.4605,4.4611,4.463,4.4649,4.4648,4.4656,4.4671,4.4668,4.4603,4.4593,4.4584,4.4574,4.4673,4.4674,4.4736,4.4736,4.4737]}]]